Location: Unspecified
(0.0000°N, 0.0000°E)
Time: 04:32:01
(UTC+00:00)

Kosmos-2233 - Pass Details

Date: 21 February 2024
Orbit: 950 x 1007 km, 82.9° (Epoch: 24 April)

Event Time Altitude Azimuth Distance (km) Brightness Sun altitude
Rises 18:30:59 0° 144° (SE) 3,622 8.2 -4.3°
Reaches altitude 10° 18:35:22 10° 115° (ESE) 2,679 7.3 -5.3°
Maximum altitude 18:37:35 12° 93° (E) 2,533 7.1 -5.9°
Drops below altitude 10° 18:39:47 10° 71° (ENE) 2,685 7.1 -6.4°
Enters shadow 18:42:54 - 49° (NE) 3,305 7.7 -7.2°
